Weather History for KRDG - August, 2014

Change the Weather History Date:

Sunday, August 10, 2014

  Actual Average Record
Temperature  
Mean Temperature 74 °F 74 °F  
Max Temperature 88 °F 84 °F 98 °F (1949)
Min Temperature 60 °F 63 °F 51 °F (1972)
Degree Days  
Heating Degree Days 0 0  
Month to date heating degree days 0 0  
Since 1 June heating degree days 1 25  
Since 1 July heating degree days 0 1  
Cooling Degree Days 9 9  
Month to date cooling degree days 81 90  
Year to date cooling degree days 680 642  
Since 1 June cooling degree days 618 582  
Growing Degree Days 24 (Base 50)    
Moisture  
Dew Point 58 °F    
Average Humidity 61    
Maximum Humidity 90    
Minimum Humidity 31    
Precipitation  
Precipitation 0.00 in 0.12 in 3.01 in (1904)
Month to date precipitation 0.05 1.17  
Year to date precipitation 27.61 26.49  
Sea Level Pressure  
Sea Level Pressure 30.12 in    
Wind  
Wind Speed 1 mph (SW)    
Max Wind Speed 9 mph    
Max Gust Speed 12 mph    
Visibility 10 miles    
Events      
T = Trace of Precipitation, MM = Missing Value Source: NWS Daily Summary

Daily Weather History Graph

Daily Weather History Graph

Search for Another Location

Airport or City:

Trip Planner

Search our weather history database for the weather conditions in past years. The results will help you decide how hot, cold, wet, or windy it might be!

Date:

Astronomy

Aug. 10, 2014 Rise Set
Actual Time 6:09 AM EDT 8:07 PM EDT
Civil Twilight 5:40 AM EDT 8:37 PM EDT
Nautical Twilight 5:04 AM EDT 9:13 PM EDT
Astronomical Twilight 4:24 AM EDT 9:52 PM EDT
Moon 7:52 PM EDT (8/10) 5:59 AM EDT (8/10)
Length of Visible Light 14h 57m
Length of Day
13h 57m
Full, 100% of the Moon is Illuminated
Aug 10
Full
Aug 10
Full
Aug 17
Last Quarter
Aug 25
New
Sep 2
First Quarter

Hourly Weather History & Observations

Time (EDT) Temp. Heat Index Dew Point Humidity Pressure Visibility Wind Dir Wind Speed Gust Speed Precip Events Conditions
12:54 AM 64.9 °F - 57.9 °F 78% 30.13 in 10.0 mi Calm Calm - N/A   Clear
1:54 AM 64.0 °F - 57.9 °F 80% 30.14 in 10.0 mi Calm Calm - N/A   Scattered Clouds
2:54 AM 62.1 °F - 57.9 °F 86% 30.13 in 10.0 mi Calm Calm - N/A   Partly Cloudy
3:54 AM 61.0 °F - 57.0 °F 87% 30.13 in 10.0 mi Calm Calm - N/A   Clear
5:54 AM 60.1 °F - 57.0 °F 90% 30.14 in 10.0 mi Calm Calm - N/A   Clear
6:54 AM 62.1 °F - 57.0 °F 84% 30.14 in 10.0 mi Calm Calm - N/A   Clear
7:54 AM 64.0 °F - 59.0 °F 84% 30.16 in 10.0 mi Calm Calm - N/A   Clear
8:54 AM 70.0 °F - 60.1 °F 71% 30.16 in 10.0 mi Calm Calm - N/A   Clear
9:54 AM 75.0 °F - 60.1 °F 60% 30.15 in 10.0 mi Calm Calm - N/A   Clear
10:54 AM 81.0 °F 81.3 °F 59.0 °F 47% 30.15 in 10.0 mi Calm Calm - N/A   Clear
11:54 AM 84.0 °F 83.5 °F 57.9 °F 41% 30.15 in 10.0 mi WSW 3.5 mph - N/A   Clear
12:54 PM 84.9 °F 83.2 °F 53.1 °F 33% 30.14 in 10.0 mi East 3.5 mph - N/A   Mostly Cloudy
1:54 PM 84.9 °F - 51.1 °F 31% 30.13 in 10.0 mi Variable 4.6 mph - N/A   Overcast
2:54 PM 87.1 °F 85.1 °F 54.0 °F 32% 30.11 in 10.0 mi SSW 5.8 mph - N/A   Partly Cloudy
3:54 PM 84.9 °F 83.2 °F 53.1 °F 33% 30.10 in 10.0 mi Calm Calm - N/A   Mostly Cloudy
4:54 PM 84.9 °F 83.3 °F 54.0 °F 34% 30.10 in 10.0 mi Calm Calm - N/A   Partly Cloudy
5:54 PM 84.0 °F 83.0 °F 55.9 °F 38% 30.09 in 10.0 mi West 5.8 mph - N/A   Scattered Clouds
6:54 PM 82.9 °F 81.9 °F 54.0 °F 37% 30.09 in 10.0 mi West 3.5 mph - N/A   Clear
7:54 PM 79.0 °F - 63.0 °F 58% 30.09 in 10.0 mi Variable 3.5 mph - N/A   Overcast
8:54 PM 75.9 °F - 61.0 °F 60% 30.09 in 10.0 mi Calm Calm - N/A   Partly Cloudy
9:54 PM 73.0 °F - 62.1 °F 68% 30.10 in 10.0 mi Calm Calm - N/A   Clear
10:54 PM 68.0 °F - 61.0 °F 78% 30.11 in 10.0 mi SSE 4.6 mph - N/A   Clear
11:54 PM 66.9 °F - 62.1 °F 84% 30.12 in 10.0 mi Calm Calm - N/A   Clear